Time,TemperatureF,DewpointF,PressureIn,WindDirection,WindDirectionDegrees,WindSpeedMPH,WindSpeedGustMPH,Humidity,HourlyPrecipIn,Conditions,Clouds,dailyrainin,SoftwareType,DateUTC
2013-02-26 00:00:00,25.7,17.2,28.48,NE,45,0.0,1.0,70,0.00,,,0.00,meteohub,2013-02-26 05:00:00,
2013-02-26 00:01:00,25.7,17.2,28.48,NE,45,0.0,1.0,70,0.00,,,0.00,meteohub,2013-02-26 05:01:00,
2013-02-26 00:04:00,25.5,17.1,28.47,NE,45,0.0,1.0,70,0.00,,,0.00,meteohub,2013-02-26 05:04:00,
2013-02-26 00:09:00,25.3,16.9,28.48,NE,45,0.0,0.0,70,0.00,,,0.00,meteohub,2013-02-26 05:09:00,
2013-02-26 00:14:00,25.3,16.9,28.48,SW,225,0.0,0.0,70,0.00,,,0.00,meteohub,2013-02-26 05:14:00,
2013-02-26 00:19:00,25.2,16.7,28.47,SE,135,0.0,0.0,70,0.00,,,0.00,meteohub,2013-02-26 05:19:00,
2013-02-26 00:25:00,25.0,16.5,28.47,East,90,2.0,0.0,70,0.00,,,0.00,meteohub,2013-02-26 05:25:00,
2013-02-26 00:30:00,24.8,16.7,28.47,West,270,2.0,2.0,71,0.00,,,0.00,meteohub,2013-02-26 05:30:00,
2013-02-26 00:35:00,24.6,16.9,28.47,South,180,1.0,2.0,72,0.00,,,0.00,meteohub,2013-02-26 05:35:00,
2013-02-26 00:40:00,24.6,16.9,28.47,South,180,0.0,2.0,72,0.00,,,0.00,meteohub,2013-02-26 05:40:00,
2013-02-26 00:45:00,24.4,16.7,28.47,South,180,1.0,2.0,72,0.00,,,0.00,meteohub,2013-02-26 05:45:00,
2013-02-26 00:50:00,24.4,16.7,28.47,NE,45,2.0,2.0,72,0.00,,,0.00,meteohub,2013-02-26 05:50:00,
2013-02-26 00:55:00,24.3,16.5,28.47,South,180,0.0,2.0,72,0.00,,,0.00,meteohub,2013-02-26 05:55:00,
2013-02-26 01:02:00,24.1,16.3,28.46,South,180,0.0,2.0,72,0.00,,,0.00,meteohub,2013-02-26 06:02:00,
2013-02-26 01:07:00,23.9,16.2,28.47,East,90,2.0,2.0,72,0.00,,,0.00,meteohub,2013-02-26 06:07:00,
2013-02-26 01:12:00,23.7,16.0,28.46,East,90,0.0,2.0,72,0.00,,,0.00,meteohub,2013-02-26 06:12:00,
2013-02-26 01:17:00,23.4,15.6,28.47,SE,135,1.0,2.0,72,0.00,,,0.00,meteohub,2013-02-26 06:17:00,
2013-02-26 01:22:00,23.2,15.8,28.47,SE,135,0.0,2.0,73,0.00,,,0.00,meteohub,2013-02-26 06:22:00,
2013-02-26 01:27:00,23.0,15.6,28.47,NW,315,0.0,2.0,73,0.00,,,0.00,meteohub,2013-02-26 06:27:00,
2013-02-26 01:32:00,23.0,15.6,28.48,NW,315,0.0,2.0,73,0.00,,,0.00,meteohub,2013-02-26 06:32:00,
2013-02-26 01:38:00,22.8,15.4,28.48,NW,315,0.0,1.0,73,0.00,,,0.00,meteohub,2013-02-26 06:38:00,
2013-02-26 01:43:00,22.6,15.3,28.49,East,90,1.0,0.0,73,0.00,,,0.00,meteohub,2013-02-26 06:43:00,
2013-02-26 01:48:00,22.6,15.3,28.48,SE,135,1.0,2.0,73,0.00,,,0.00,meteohub,2013-02-26 06:48:00,
2013-02-26 01:53:00,22.5,15.1,28.49,SE,135,0.0,2.0,73,0.00,,,0.00,meteohub,2013-02-26 06:53:00,
2013-02-26 01:58:00,22.3,15.3,28.50,SE,135,0.0,2.0,74,0.00,,,0.00,meteohub,2013-02-26 06:58:00,
2013-02-26 02:03:00,22.3,15.3,28.50,SE,135,0.0,2.0,74,0.00,,,0.00,meteohub,2013-02-26 07:03:00,
2013-02-26 02:08:00,22.1,15.1,28.50,SE,135,0.0,2.0,74,0.00,,,0.00,meteohub,2013-02-26 07:08:00,
2013-02-26 02:13:00,22.1,15.1,28.50,SW,225,2.0,2.0,74,0.00,,,0.00,meteohub,2013-02-26 07:13:00,
2013-02-26 02:18:00,22.1,15.1,28.50,SW,225,2.0,2.0,74,0.00,,,0.00,meteohub,2013-02-26 07:18:00,
2013-02-26 02:23:00,21.9,14.9,28.50,SW,225,0.0,2.0,74,0.00,,,0.00,meteohub,2013-02-26 07:23:00,
2013-02-26 02:29:00,21.9,14.9,28.50,SE,135,1.0,2.0,74,0.00,,,0.00,meteohub,2013-02-26 07:29:00,
2013-02-26 02:34:00,21.7,14.7,28.49,SE,135,0.0,2.0,74,0.00,,,0.00,meteohub,2013-02-26 07:34:00,
2013-02-26 02:39:00,21.6,14.5,28.49,SW,225,1.0,2.0,74,0.00,,,0.00,meteohub,2013-02-26 07:39:00,
2013-02-26 02:44:00,21.4,14.4,28.51,SW,225,0.0,2.0,74,0.00,,,0.00,meteohub,2013-02-26 07:44:00,
2013-02-26 02:49:00,21.2,14.2,28.51,East,90,2.0,2.0,74,0.00,,,0.00,meteohub,2013-02-26 07:49:00,
2013-02-26 02:54:00,21.2,14.5,28.51,South,180,0.0,2.0,75,0.00,,,0.00,meteohub,2013-02-26 07:54:00,
2013-02-26 02:59:00,21.0,14.7,28.50,South,180,0.0,2.0,76,0.00,,,0.00,meteohub,2013-02-26 07:59:00,
2013-02-26 03:04:00,21.0,14.7,28.49,SW,225,2.0,2.0,76,0.00,,,0.00,meteohub,2013-02-26 08:04:00,
2013-02-26 03:09:00,21.0,14.7,28.49,SW,225,1.0,2.0,76,0.00,,,0.00,meteohub,2013-02-26 08:09:00,
2013-02-26 03:14:00,21.0,14.7,28.48,SE,135,1.0,2.0,76,0.00,,,0.00,meteohub,2013-02-26 08:14:00,
2013-02-26 03:19:00,21.0,14.7,28.49,SE,135,3.0,3.0,76,0.00,,,0.00,meteohub,2013-02-26 08:19:00,
2013-02-26 03:24:00,20.8,14.5,28.49,SW,225,2.0,3.0,76,0.00,,,0.00,meteohub,2013-02-26 08:24:00,
2013-02-26 03:29:00,20.5,14.2,28.49,SW,225,2.0,3.0,76,0.00,,,0.00,meteohub,2013-02-26 08:29:00,
2013-02-26 03:34:00,20.5,14.2,28.49,SE,135,2.0,3.0,76,0.00,,,0.00,meteohub,2013-02-26 08:34:00,
2013-02-26 03:40:00,20.5,14.2,28.49,SE,135,2.0,2.0,76,0.00,,,0.00,meteohub,2013-02-26 08:40:00,
2013-02-26 03:45:00,20.5,14.2,28.48,SSE,158,2.0,2.0,76,0.00,,,0.00,meteohub,2013-02-26 08:45:00,
2013-02-26 03:50:00,20.5,14.2,28.49,SE,135,2.0,2.0,76,0.00,,,0.00,meteohub,2013-02-26 08:50:00,
2013-02-26 03:55:00,20.3,14.2,28.49,South,180,2.0,2.0,77,0.00,,,0.00,meteohub,2013-02-26 08:55:00,
2013-02-26 04:00:00,20.3,14.2,28.49,SE,135,2.0,2.0,77,0.00,,,0.00,meteohub,2013-02-26 09:00:00,
2013-02-26 04:05:00,20.3,14.2,28.48,SE,135,2.0,2.0,77,0.00,,,0.00,meteohub,2013-02-26 09:05:00,
2013-02-26 04:10:00,20.1,14.0,28.48,West,270,0.0,3.0,77,0.00,,,0.00,meteohub,2013-02-26 09:10:00,
2013-02-26 04:15:00,20.1,14.0,28.48,NE,45,0.0,3.0,77,0.00,,,0.00,meteohub,2013-02-26 09:15:00,
2013-02-26 04:20:00,19.9,13.6,28.48,East,90,1.0,2.0,76,0.00,,,0.00,meteohub,2013-02-26 09:20:00,
2013-02-26 04:25:00,19.8,13.5,28.49,North,0,0.0,2.0,76,0.00,,,0.00,meteohub,2013-02-26 09:25:00,
2013-02-26 04:31:00,19.6,13.3,28.49,South,180,1.0,2.0,76,0.00,,,0.00,meteohub,2013-02-26 09:31:00,
2013-02-26 04:36:00,19.6,13.3,28.49,South,180,1.0,2.0,76,0.00,,,0.00,meteohub,2013-02-26 09:36:00,
2013-02-26 04:41:00,19.4,13.1,28.49,South,180,0.0,2.0,76,0.00,,,0.00,meteohub,2013-02-26 09:41:00,
2013-02-26 04:46:00,19.2,11.7,28.50,SE,135,1.0,2.0,72,0.00,,,0.00,meteohub,2013-02-26 09:46:00,
2013-02-26 04:51:00,19.2,11.7,28.50,SW,225,1.0,2.0,72,0.00,,,0.00,meteohub,2013-02-26 09:51:00,
2013-02-26 04:56:00,19.0,11.5,28.50,West,270,1.0,2.0,72,0.00,,,0.00,meteohub,2013-02-26 09:56:00,
2013-02-26 05:01:00,19.0,11.5,28.50,West,270,0.0,1.0,72,0.00,,,0.00,meteohub,2013-02-26 10:01:00,
2013-02-26 05:06:00,18.9,11.3,28.50,West,270,0.0,1.0,72,0.00,,,0.00,meteohub,2013-02-26 10:06:00,
2013-02-26 05:11:00,18.9,11.3,28.51,East,90,2.0,2.0,72,0.00,,,0.00,meteohub,2013-02-26 10:11:00,
2013-02-26 05:16:00,18.7,11.1,28.51,South,180,1.0,2.0,72,0.00,,,0.00,meteohub,2013-02-26 10:16:00,
2013-02-26 05:22:00,18.7,11.1,28.51,South,180,1.0,2.0,72,0.00,,,0.00,meteohub,2013-02-26 10:22:00,
2013-02-26 05:27:00,18.7,11.1,28.51,SE,135,2.0,2.0,72,0.00,,,0.00,meteohub,2013-02-26 10:27:00,
2013-02-26 05:32:00,18.5,10.9,28.51,South,180,2.0,2.0,72,0.00,,,0.00,meteohub,2013-02-26 10:32:00,
2013-02-26 05:37:00,18.5,10.9,28.51,East,90,2.0,2.0,72,0.00,,,0.00,meteohub,2013-02-26 10:37:00,
2013-02-26 05:42:00,18.3,10.8,28.51,SW,225,2.0,2.0,72,0.00,,,0.00,meteohub,2013-02-26 10:42:00,
2013-02-26 05:47:00,18.1,10.6,28.51,South,180,0.0,2.0,72,0.00,,,0.00,meteohub,2013-02-26 10:47:00,
2013-02-26 05:52:00,18.3,10.8,28.51,East,90,2.0,2.0,72,0.00,,,0.00,meteohub,2013-02-26 10:52:00,
2013-02-26 05:57:00,18.1,10.6,28.51,NE,45,0.0,3.0,72,0.00,,,0.00,meteohub,2013-02-26 10:57:00,
2013-02-26 06:02:00,18.0,10.4,28.51,SW,225,1.0,3.0,72,0.00,,,0.00,meteohub,2013-02-26 11:02:00,
2013-02-26 06:07:00,17.8,10.2,28.51,SE,135,2.0,3.0,72,0.00,,,0.00,meteohub,2013-02-26 11:07:00,
2013-02-26 06:12:00,17.8,10.2,28.51,SE,135,2.0,2.0,72,0.00,,,0.00,meteohub,2013-02-26 11:12:00,
2013-02-26 06:17:00,17.8,10.2,28.52,SE,135,2.0,2.0,72,0.00,,,0.00,meteohub,2013-02-26 11:17:00,
2013-02-26 06:22:00,17.6,10.0,28.51,SE,135,2.0,2.0,72,0.00,,,0.00,meteohub,2013-02-26 11:22:00,
2013-02-26 06:27:00,17.6,9.9,28.51,SW,225,0.0,2.0,71,0.00,,,0.00,meteohub,2013-02-26 11:27:00,
2013-02-26 06:32:00,17.4,9.9,28.51,South,180,2.0,2.0,72,0.00,,,0.00,meteohub,2013-02-26 11:32:00,
2013-02-26 06:37:00,17.4,9.9,28.51,South,180,2.0,2.0,72,0.00,,,0.00,meteohub,2013-02-26 11:37:00,
2013-02-26 06:42:00,17.4,9.9,28.51,SE,135,2.0,2.0,72,0.00,,,0.00,meteohub,2013-02-26 11:42:00,
2013-02-26 06:47:00,17.4,9.9,28.52,South,180,2.0,2.0,72,0.00,,,0.00,meteohub,2013-02-26 11:47:00,
2013-02-26 06:52:00,17.4,9.9,28.52,SW,225,3.0,3.0,72,0.00,,,0.00,meteohub,2013-02-26 11:52:00,
2013-02-26 06:57:00,17.4,9.9,28.52,East,90,1.0,3.0,72,0.00,,,0.00,meteohub,2013-02-26 11:57:00,
2013-02-26 07:02:00,17.4,9.9,28.52,SE,135,2.0,3.0,72,0.00,,,0.00,meteohub,2013-02-26 12:02:00,
2013-02-26 07:07:00,17.4,9.9,28.51,SE,135,2.0,3.0,72,0.00,,,0.00,meteohub,2013-02-26 12:07:00,
2013-02-26 07:12:00,17.4,9.9,28.51,SE,135,0.0,2.0,72,0.00,,,0.00,meteohub,2013-02-26 12:12:00,
2013-02-26 07:17:00,17.6,9.9,28.50,SE,135,2.0,4.0,71,0.00,,,0.00,meteohub,2013-02-26 12:17:00,
2013-02-26 07:22:00,17.8,10.0,28.51,East,90,2.0,4.0,71,0.00,,,0.00,meteohub,2013-02-26 12:22:00,
2013-02-26 07:27:00,18.0,10.2,28.51,South,180,2.0,4.0,71,0.00,,,0.00,meteohub,2013-02-26 12:27:00,
2013-02-26 07:32:00,18.3,10.6,28.51,East,90,2.0,4.0,71,0.00,,,0.00,meteohub,2013-02-26 12:32:00,
2013-02-26 07:37:00,18.9,11.3,28.51,SW,225,1.0,2.0,72,0.00,,,0.00,meteohub,2013-02-26 12:37:00,
2013-02-26 07:42:00,19.2,11.7,28.51,South,180,2.0,2.0,72,0.00,,,0.00,meteohub,2013-02-26 12:42:00,
2013-02-26 07:47:00,19.8,13.5,28.51,East,90,2.0,2.0,76,0.00,,,0.00,meteohub,2013-02-26 12:47:00,
2013-02-26 07:52:00,20.7,14.4,28.51,South,180,2.0,3.0,76,0.00,,,0.00,meteohub,2013-02-26 12:52:00,
2013-02-26 07:57:00,21.4,14.7,28.51,East,90,2.0,4.0,75,0.00,,,0.00,meteohub,2013-02-26 12:57:00,
2013-02-26 08:02:00,21.9,14.9,28.52,ESE,113,2.0,4.0,74,0.00,,,0.00,meteohub,2013-02-26 13:02:00,
2013-02-26 08:07:00,22.8,15.8,28.52,SE,135,2.0,4.0,74,0.00,,,0.00,meteohub,2013-02-26 13:07:00,
2013-02-26 08:12:00,23.9,16.5,28.52,South,180,2.0,4.0,73,0.00,,,0.00,meteohub,2013-02-26 13:12:00,
2013-02-26 08:17:00,24.8,16.7,28.52,South,180,3.0,3.0,71,0.00,,,0.00,meteohub,2013-02-26 13:17:00,
2013-02-26 08:22:00,25.3,17.2,28.52,SE,135,2.0,3.0,71,0.00,,,0.00,meteohub,2013-02-26 13:22:00,
2013-02-26 08:27:00,25.7,16.9,28.52,SE,135,2.0,4.0,69,0.00,,,0.00,meteohub,2013-02-26 13:27:00,
2013-02-26 08:32:00,25.7,16.3,28.52,SE,135,1.0,4.0,67,0.00,,,0.00,meteohub,2013-02-26 13:32:00,
2013-02-26 08:37:00,26.2,16.7,28.51,SE,135,4.0,4.0,67,0.00,,,0.00,meteohub,2013-02-26 13:37:00,
2013-02-26 08:43:00,26.6,16.3,28.51,South,180,4.0,4.0,65,0.00,,,0.00,meteohub,2013-02-26 13:43:00,
2013-02-26 08:48:00,26.4,16.5,28.51,South,180,2.0,4.0,66,0.00,,,0.00,meteohub,2013-02-26 13:48:00,
2013-02-26 08:53:00,26.6,16.7,28.51,SE,135,2.0,4.0,66,0.00,,,0.00,meteohub,2013-02-26 13:53:00,
2013-02-26 08:58:00,26.8,16.9,28.51,SE,135,2.0,4.0,66,0.00,,,0.00,meteohub,2013-02-26 13:58:00,
2013-02-26 09:03:00,27.1,17.6,28.51,SE,135,2.0,4.0,67,0.00,,,0.00,meteohub,2013-02-26 14:03:00,
2013-02-26 09:08:00,27.5,18.0,28.50,SE,135,4.0,4.0,67,0.00,,,0.00,meteohub,2013-02-26 14:08:00,
2013-02-26 09:13:00,27.9,18.3,28.50,South,180,2.0,4.0,67,0.00,,,0.00,meteohub,2013-02-26 14:13:00,
2013-02-26 09:18:00,28.4,20.5,28.50,SE,135,4.0,4.0,72,0.00,,,0.00,meteohub,2013-02-26 14:18:00,
2013-02-26 09:23:00,28.8,20.8,28.51,SSE,158,6.0,6.0,72,0.00,,,0.00,meteohub,2013-02-26 14:23:00,
2013-02-26 09:28:00,29.1,21.2,28.51,South,180,2.0,6.0,72,0.00,,,0.00,meteohub,2013-02-26 14:28:00,
2013-02-26 09:34:00,30.0,22.1,28.51,South,180,6.0,6.0,72,0.00,,,0.00,meteohub,2013-02-26 14:34:00,
2013-02-26 09:39:00,31.3,22.6,28.51,East,90,5.0,6.0,70,0.00,,,0.00,meteohub,2013-02-26 14:39:00,
2013-02-26 09:44:00,32.2,23.2,28.51,South,180,4.0,6.0,69,0.00,,,0.00,meteohub,2013-02-26 14:44:00,
2013-02-26 09:49:00,33.1,23.4,28.51,SE,135,4.0,10.0,67,0.00,,,0.00,meteohub,2013-02-26 14:49:00,
2013-02-26 09:54:00,33.3,22.1,28.51,South,180,6.0,10.0,63,0.00,,,0.00,meteohub,2013-02-26 14:54:00,
2013-02-26 09:59:00,33.3,22.1,28.51,South,180,4.0,10.0,63,0.00,,,0.00,meteohub,2013-02-26 14:59:00,
2013-02-26 10:04:00,33.4,22.3,28.51,SSE,158,6.0,10.0,63,0.00,,,0.00,meteohub,2013-02-26 15:04:00,
2013-02-26 10:09:00,33.4,21.7,28.52,SE,135,5.0,7.0,62,0.00,,,0.00,meteohub,2013-02-26 15:09:00,
2013-02-26 10:14:00,33.6,21.9,28.52,SW,225,3.0,9.0,62,0.00,,,0.00,meteohub,2013-02-26 15:14:00,
2013-02-26 10:19:00,34.3,21.9,28.52,South,180,5.0,9.0,60,0.00,,,0.00,meteohub,2013-02-26 15:19:00,
2013-02-26 10:24:00,34.5,21.2,28.52,West,270,4.0,9.0,58,0.00,,,0.00,meteohub,2013-02-26 15:24:00,
2013-02-26 10:30:00,34.7,21.4,28.52,SW,225,6.0,8.0,58,0.00,,,0.00,meteohub,2013-02-26 15:30:00,
2013-02-26 10:35:00,34.9,21.2,28.52,SW,225,2.0,8.0,57,0.00,,,0.00,meteohub,2013-02-26 15:35:00,
2013-02-26 10:40:00,34.9,21.2,28.52,South,180,4.0,8.0,57,0.00,,,0.00,meteohub,2013-02-26 15:40:00,
2013-02-26 10:45:00,34.9,20.8,28.51,South,180,2.0,8.0,56,0.00,,,0.00,meteohub,2013-02-26 15:45:00,
2013-02-26 10:50:00,35.1,20.5,28.51,South,180,9.0,9.0,55,0.00,,,0.00,meteohub,2013-02-26 15:50:00,
2013-02-26 10:55:00,34.9,20.3,28.51,South,180,5.0,9.0,55,0.00,,,0.00,meteohub,2013-02-26 15:55:00,
2013-02-26 11:00:00,35.1,20.1,28.51,South,180,5.0,9.0,54,0.00,,,0.00,meteohub,2013-02-26 16:00:00,
2013-02-26 11:05:00,35.4,19.6,28.50,South,180,9.0,9.0,52,0.00,,,0.00,meteohub,2013-02-26 16:05:00,
2013-02-26 11:10:00,35.6,18.9,28.50,South,180,8.0,11.0,50,0.00,,,0.00,meteohub,2013-02-26 16:10:00,
2013-02-26 11:16:00,35.8,19.0,28.50,SE,135,10.0,11.0,50,0.00,,,0.00,meteohub,2013-02-26 16:16:00,
2013-02-26 11:21:00,36.3,19.0,28.51,SW,225,7.0,11.0,49,0.00,,,0.00,meteohub,2013-02-26 16:21:00,
2013-02-26 11:26:00,36.9,19.4,28.50,SE,135,5.0,10.0,49,0.00,,,0.00,meteohub,2013-02-26 16:26:00,
2013-02-26 11:31:00,36.9,19.0,28.50,SE,135,3.0,10.0,48,0.00,,,0.00,meteohub,2013-02-26 16:31:00,
2013-02-26 11:36:00,36.7,18.9,28.50,SE,135,9.0,9.0,48,0.00,,,0.00,meteohub,2013-02-26 16:36:00,
2013-02-26 11:41:00,36.3,18.5,28.49,South,180,6.0,12.0,48,0.00,,,0.00,meteohub,2013-02-26 16:41:00,
2013-02-26 11:46:00,36.3,18.5,28.49,SE,135,10.0,12.0,48,0.00,,,0.00,meteohub,2013-02-26 16:46:00,
2013-02-26 11:51:00,36.7,18.9,28.49,South,180,4.0,12.0,48,0.00,,,0.00,meteohub,2013-02-26 16:51:00,
2013-02-26 11:57:00,36.5,18.7,28.49,SSW,203,12.0,12.0,48,0.00,,,0.00,meteohub,2013-02-26 16:57:00,
2013-02-26 12:02:00,36.7,18.9,28.49,South,180,5.0,12.0,48,0.00,,,0.00,meteohub,2013-02-26 17:02:00,
2013-02-26 12:07:00,36.7,18.9,28.49,South,180,8.0,12.0,48,0.00,,,0.00,meteohub,2013-02-26 17:07:00,
2013-02-26 12:12:00,36.9,19.0,28.49,South,180,4.0,12.0,48,0.00,,,0.00,meteohub,2013-02-26 17:12:00,
2013-02-26 12:17:00,36.7,18.9,28.48,SSE,158,9.0,12.0,48,0.00,,,0.00,meteohub,2013-02-26 17:17:00,
2013-02-26 12:22:00,36.9,19.0,28.49,South,180,10.0,12.0,48,0.00,,,0.00,meteohub,2013-02-26 17:22:00,
2013-02-26 12:27:00,36.9,19.0,28.48,SE,135,10.0,12.0,48,0.00,,,0.00,meteohub,2013-02-26 17:27:00,
2013-02-26 12:32:00,37.2,19.4,28.48,South,180,5.0,10.0,48,0.00,,,0.00,meteohub,2013-02-26 17:32:00,
2013-02-26 12:37:00,37.4,21.4,28.48,SE,135,8.0,10.0,52,0.00,,,0.00,meteohub,2013-02-26 17:37:00,
2013-02-26 12:42:00,37.6,21.6,28.48,ESE,113,4.0,10.0,52,0.00,,,0.00,meteohub,2013-02-26 17:42:00,
2013-02-26 12:47:00,37.8,21.2,28.47,South,180,4.0,13.0,51,0.00,,,0.00,meteohub,2013-02-26 17:47:00,
2013-02-26 12:52:00,37.2,18.9,28.47,East,90,3.0,13.0,47,0.00,,,0.00,meteohub,2013-02-26 17:52:00,
2013-02-26 12:57:00,37.2,19.4,28.47,West,270,5.0,13.0,48,0.00,,,0.00,meteohub,2013-02-26 17:57:00,
2013-02-26 13:02:00,37.6,21.6,28.46,SW,225,3.0,11.0,52,0.00,,,0.00,meteohub,2013-02-26 18:02:00,
2013-02-26 13:07:00,37.6,21.6,28.46,South,180,9.0,9.0,52,0.00,,,0.00,meteohub,2013-02-26 18:07:00,
2013-02-26 13:12:00,37.4,21.9,28.45,South,180,5.0,9.0,53,0.00,,,0.00,meteohub,2013-02-26 18:12:00,
2013-02-26 13:17:00,37.8,21.7,28.45,SE,135,5.0,10.0,52,0.00,,,0.00,meteohub,2013-02-26 18:17:00,
2013-02-26 13:22:00,37.6,21.6,28.45,South,180,8.0,10.0,52,0.00,,,0.00,meteohub,2013-02-26 18:22:00,
2013-02-26 13:27:00,37.0,19.2,28.45,SE,135,6.0,10.0,48,0.00,,,0.00,meteohub,2013-02-26 18:27:00,
2013-02-26 13:32:00,36.7,19.4,28.44,SE,135,5.0,10.0,49,0.00,,,0.00,meteohub,2013-02-26 18:32:00,
2013-02-26 13:37:00,36.9,19.4,28.44,NW,315,4.0,10.0,49,0.00,,,0.00,meteohub,2013-02-26 18:37:00,
2013-02-26 13:42:00,37.0,19.2,28.44,South,180,9.0,10.0,48,0.00,,,0.00,meteohub,2013-02-26 18:42:00,
2013-02-26 13:47:00,37.0,19.2,28.44,SW,225,9.0,11.0,48,0.00,,,0.00,meteohub,2013-02-26 18:47:00,
2013-02-26 13:52:00,37.4,21.4,28.44,South,180,8.0,11.0,52,0.00,,,0.00,meteohub,2013-02-26 18:52:00,
2013-02-26 13:57:00,37.2,19.4,28.44,South,180,8.0,11.0,48,0.00,,,0.00,meteohub,2013-02-26 18:57:00,
2013-02-26 14:02:00,36.9,19.0,28.43,SE,135,6.0,11.0,48,0.00,,,0.00,meteohub,2013-02-26 19:02:00,
2013-02-26 14:07:00,36.7,18.9,28.43,South,180,8.0,11.0,48,0.00,,,0.00,meteohub,2013-02-26 19:07:00,
2013-02-26 14:12:00,36.7,18.9,28.43,South,180,5.0,11.0,48,0.00,,,0.00,meteohub,2013-02-26 19:12:00,
2013-02-26 14:17:00,37.0,19.2,28.43,SE,135,10.0,11.0,48,0.00,,,0.00,meteohub,2013-02-26 19:17:00,
2013-02-26 14:22:00,36.7,18.9,28.43,SSW,203,10.0,15.0,48,0.00,,,0.00,meteohub,2013-02-26 19:22:00,
2013-02-26 14:27:00,36.7,18.9,28.43,SE,135,14.0,15.0,48,0.00,,,0.00,meteohub,2013-02-26 19:27:00,
2013-02-26 14:32:00,36.7,18.9,28.43,ESE,113,8.0,15.0,48,0.00,,,0.00,meteohub,2013-02-26 19:32:00,
2013-02-26 14:37:00,36.9,19.0,28.43,East,90,6.0,15.0,48,0.00,,,0.00,meteohub,2013-02-26 19:37:00,
2013-02-26 14:42:00,36.9,19.0,28.42,East,90,9.0,15.0,48,0.00,,,0.00,meteohub,2013-02-26 19:42:00,
2013-02-26 14:47:00,36.9,19.0,28.42,SSW,203,8.0,15.0,48,0.00,,,0.00,meteohub,2013-02-26 19:47:00,
2013-02-26 14:52:00,36.9,19.0,28.42,SE,135,8.0,15.0,48,0.00,,,0.00,meteohub,2013-02-26 19:52:00,
2013-02-26 14:57:00,36.9,19.0,28.42,South,180,13.0,15.0,48,0.00,,,0.00,meteohub,2013-02-26 19:57:00,
2013-02-26 15:02:00,36.7,18.9,28.42,East,90,10.0,13.0,48,0.00,,,0.00,meteohub,2013-02-26 20:02:00,
2013-02-26 15:07:00,36.5,18.7,28.42,SE,135,13.0,13.0,48,0.00,,,0.00,meteohub,2013-02-26 20:07:00,
2013-02-26 15:12:00,36.5,18.7,28.42,South,180,10.0,15.0,48,0.00,,,0.00,meteohub,2013-02-26 20:12:00,
2013-02-26 15:17:00,36.5,18.7,28.43,SSE,158,8.0,15.0,48,0.00,,,0.00,meteohub,2013-02-26 20:17:00,
2013-02-26 15:22:00,36.5,18.7,28.43,South,180,8.0,15.0,48,0.00,,,0.00,meteohub,2013-02-26 20:22:00,
2013-02-26 15:27:00,36.5,18.7,28.43,SE,135,5.0,14.0,48,0.00,,,0.00,meteohub,2013-02-26 20:27:00,
2013-02-26 15:32:00,36.3,18.5,28.42,East,90,9.0,14.0,48,0.00,,,0.00,meteohub,2013-02-26 20:32:00,
2013-02-26 15:37:00,36.3,18.5,28.42,SE,135,7.0,14.0,48,0.00,,,0.00,meteohub,2013-02-26 20:37:00,
2013-02-26 15:42:00,36.1,18.9,28.42,SSE,158,17.0,17.0,49,0.00,,,0.00,meteohub,2013-02-26 20:42:00,
2013-02-26 15:47:00,36.0,18.7,28.42,South,180,4.0,17.0,49,0.00,,,0.00,meteohub,2013-02-26 20:47:00,
2013-02-26 15:52:00,36.0,18.1,28.41,South,180,8.0,17.0,48,0.00,,,0.00,meteohub,2013-02-26 20:52:00,
2013-02-26 15:57:00,35.8,18.5,28.40,South,180,8.0,17.0,49,0.00,,,0.00,meteohub,2013-02-26 20:57:00,
2013-02-26 16:02:00,35.8,18.5,28.40,South,180,8.0,11.0,49,0.00,,,0.00,meteohub,2013-02-26 21:02:00,
2013-02-26 16:07:00,35.8,18.5,28.40,SE,135,4.0,11.0,49,0.00,,,0.00,meteohub,2013-02-26 21:07:00,
2013-02-26 16:12:00,35.8,18.5,28.40,SSE,158,6.0,11.0,49,0.00,,,0.00,meteohub,2013-02-26 21:12:00,
2013-02-26 16:17:00,35.6,18.3,28.40,SE,135,5.0,11.0,49,0.00,,,0.00,meteohub,2013-02-26 21:17:00,
2013-02-26 16:22:00,35.6,18.3,28.41,SE,135,6.0,10.0,49,0.00,,,0.00,meteohub,2013-02-26 21:22:00,
2013-02-26 16:27:00,35.4,18.7,28.40,South,180,8.0,10.0,50,0.00,,,0.00,meteohub,2013-02-26 21:27:00,
2013-02-26 16:32:00,35.4,18.7,28.40,South,180,10.0,10.0,50,0.00,,,0.00,meteohub,2013-02-26 21:32:00,
2013-02-26 16:37:00,35.2,18.5,28.39,SSW,203,7.0,12.0,50,0.00,,,0.00,meteohub,2013-02-26 21:37:00,
2013-02-26 16:42:00,35.2,18.5,28.39,SW,225,8.0,12.0,50,0.00,,,0.00,meteohub,2013-02-26 21:42:00,
2013-02-26 16:47:00,35.1,18.3,28.39,SW,225,8.0,12.0,50,0.00,,,0.00,meteohub,2013-02-26 21:47:00,
2013-02-26 16:52:00,35.1,18.3,28.38,SE,135,9.0,11.0,50,0.00,,,0.00,meteohub,2013-02-26 21:52:00,
2013-02-26 16:57:00,34.9,18.1,28.38,SSE,158,8.0,11.0,50,0.00,,,0.00,meteohub,2013-02-26 21:57:00,
2013-02-26 17:02:00,34.7,18.5,28.38,South,180,5.0,11.0,51,0.00,,,0.00,meteohub,2013-02-26 22:02:00,
2013-02-26 17:07:00,34.7,18.5,28.38,SE,135,11.0,11.0,51,0.00,,,0.00,meteohub,2013-02-26 22:07:00,
2013-02-26 17:12:00,34.3,18.1,28.38,SE,135,8.0,13.0,51,0.00,,,0.00,meteohub,2013-02-26 22:12:00,
2013-02-26 17:17:00,34.3,18.5,28.38,SE,135,6.0,13.0,52,0.00,,,0.00,meteohub,2013-02-26 22:17:00,
2013-02-26 17:22:00,34.0,18.1,28.38,South,180,5.0,13.0,52,0.00,,,0.00,meteohub,2013-02-26 22:22:00,
2013-02-26 17:27:00,34.0,18.1,28.38,SE,135,7.0,12.0,52,0.00,,,0.00,meteohub,2013-02-26 22:27:00,
2013-02-26 17:32:00,33.8,18.5,28.37,South,180,10.0,12.0,53,0.00,,,0.00,meteohub,2013-02-26 22:32:00,
2013-02-26 17:37:00,33.6,18.7,28.37,South,180,6.0,12.0,54,0.00,,,0.00,meteohub,2013-02-26 22:37:00,
2013-02-26 17:43:00,33.6,18.7,28.36,South,180,7.0,11.0,54,0.00,,,0.00,meteohub,2013-02-26 22:43:00,
2013-02-26 17:48:00,33.4,19.0,28.37,South,180,11.0,11.0,55,0.00,,,0.00,meteohub,2013-02-26 22:48:00,
2013-02-26 17:53:00,33.3,18.9,28.36,SSW,203,6.0,13.0,55,0.00,,,0.00,meteohub,2013-02-26 22:53:00,
2013-02-26 17:58:00,33.3,19.2,28.37,SE,135,9.0,13.0,56,0.00,,,0.00,meteohub,2013-02-26 22:58:00,
2013-02-26 18:03:00,33.1,19.0,28.37,SSE,158,8.0,13.0,56,0.00,,,0.00,meteohub,2013-02-26 23:03:00,
2013-02-26 18:08:00,32.9,18.9,28.38,SE,135,5.0,13.0,56,0.00,,,0.00,meteohub,2013-02-26 23:08:00,
2013-02-26 18:13:00,32.9,19.4,28.38,South,180,7.0,13.0,57,0.00,,,0.00,meteohub,2013-02-26 23:13:00,
2013-02-26 18:18:00,32.9,19.4,28.39,South,180,4.0,12.0,57,0.00,,,0.00,meteohub,2013-02-26 23:18:00,
2013-02-26 18:23:00,32.7,19.6,28.38,SE,135,12.0,13.0,58,0.00,,,0.00,meteohub,2013-02-26 23:23:00,
2013-02-26 18:28:00,32.7,19.6,28.38,South,180,7.0,13.0,58,0.00,,,0.00,meteohub,2013-02-26 23:28:00,
2013-02-26 18:33:00,32.7,19.6,28.38,SE,135,4.0,13.0,58,0.00,,,0.00,meteohub,2013-02-26 23:33:00,
2013-02-26 18:39:00,32.5,19.8,28.38,SSW,203,8.0,12.0,59,0.00,,,0.00,meteohub,2013-02-26 23:39:00,
2013-02-26 18:44:00,32.5,19.8,28.38,SE,135,10.0,12.0,59,0.00,,,0.00,meteohub,2013-02-26 23:44:00,
2013-02-26 18:49:00,32.5,19.8,28.39,SE,135,9.0,15.0,59,0.00,,,0.00,meteohub,2013-02-26 23:49:00,
2013-02-26 18:54:00,32.4,19.9,28.38,SE,135,11.0,15.0,60,0.00,,,0.00,meteohub,2013-02-26 23:54:00,
2013-02-26 18:59:00,32.4,19.9,28.38,South,180,9.0,15.0,60,0.00,,,0.00,meteohub,2013-02-26 23:59:00,
2013-02-26 19:04:00,32.4,19.9,28.39,South,180,8.0,11.0,60,0.00,,,0.00,meteohub,2013-02-27 00:04:00,
2013-02-26 19:09:00,32.2,19.9,28.38,South,180,11.0,11.0,60,0.00,,,0.00,meteohub,2013-02-27 00:09:00,
2013-02-26 19:14:00,32.2,20.3,28.39,South,180,10.0,15.0,61,0.00,,,0.00,meteohub,2013-02-27 00:14:00,
2013-02-26 19:19:00,32.2,20.3,28.38,South,180,9.0,16.0,61,0.00,,,0.00,meteohub,2013-02-27 00:19:00,
2013-02-26 19:24:00,32.2,20.3,28.38,South,180,8.0,16.0,61,0.00,,,0.00,meteohub,2013-02-27 00:24:00,
2013-02-26 19:29:00,32.2,20.3,28.38,SE,135,15.0,16.0,61,0.00,,,0.00,meteohub,2013-02-27 00:29:00,
2013-02-26 19:35:00,32.2,20.3,28.38,South,180,7.0,15.0,61,0.00,,,0.00,meteohub,2013-02-27 00:35:00,
2013-02-26 19:40:00,32.0,20.1,28.38,South,180,9.0,15.0,61,0.00,,,0.00,meteohub,2013-02-27 00:40:00,
2013-02-26 19:45:00,32.0,20.1,28.38,South,180,8.0,15.0,61,0.00,,,0.00,meteohub,2013-02-27 00:45:00,
2013-02-26 19:50:00,32.0,20.1,28.37,South,180,15.0,15.0,61,0.00,,,0.00,meteohub,2013-02-27 00:50:00,
2013-02-26 19:55:00,32.0,20.1,28.37,SSW,203,16.0,16.0,61,0.00,,,0.00,meteohub,2013-02-27 00:55:00,
2013-02-26 20:00:00,31.8,20.3,28.36,South,180,8.0,16.0,62,0.00,,,0.00,meteohub,2013-02-27 01:00:00,
2013-02-26 20:05:00,31.8,20.3,28.36,South,180,15.0,16.0,62,0.00,,,0.00,meteohub,2013-02-27 01:05:00,
2013-02-26 20:10:00,31.6,19.8,28.36,South,180,16.0,16.0,61,0.00,,,0.00,meteohub,2013-02-27 01:10:00,
2013-02-26 20:15:00,31.6,19.8,28.36,SE,135,15.0,16.0,61,0.00,,,0.00,meteohub,2013-02-27 01:15:00,
2013-02-26 20:20:00,31.6,19.4,28.36,South,180,13.0,17.0,60,0.00,,,0.00,meteohub,2013-02-27 01:20:00,
2013-02-26 20:25:00,31.5,19.2,28.36,SE,135,13.0,17.0,60,0.00,,,0.00,meteohub,2013-02-27 01:25:00,
2013-02-26 20:31:00,31.5,18.9,28.36,South,180,12.0,17.0,59,0.00,,,0.00,meteohub,2013-02-27 01:31:00,
2013-02-26 20:36:00,31.5,18.9,28.35,South,180,15.0,15.0,59,0.00,,,0.00,meteohub,2013-02-27 01:36:00,
2013-02-26 20:41:00,31.5,18.3,28.34,South,180,15.0,15.0,58,0.00,,,0.00,meteohub,2013-02-27 01:41:00,
2013-02-26 20:46:00,31.5,18.0,28.35,SSE,158,15.0,15.0,57,0.00,,,0.00,meteohub,2013-02-27 01:46:00,
2013-02-26 20:51:00,31.5,17.6,28.34,SE,135,14.0,15.0,56,0.00,,,0.00,meteohub,2013-02-27 01:51:00,
2013-02-26 20:56:00,31.5,17.6,28.34,South,180,8.0,15.0,56,0.00,,,0.00,meteohub,2013-02-27 01:56:00,
2013-02-26 21:01:00,31.5,17.6,28.34,South,180,11.0,15.0,56,0.00,,,0.00,meteohub,2013-02-27 02:01:00,
2013-02-26 21:06:00,31.5,17.2,28.33,SW,225,9.0,15.0,55,0.00,,,0.00,meteohub,2013-02-27 02:06:00,
2013-02-26 21:11:00,31.5,17.2,28.32,South,180,10.0,15.0,55,0.00,,,0.00,meteohub,2013-02-27 02:11:00,
2013-02-26 21:16:00,31.5,17.6,28.32,South,180,10.0,15.0,56,0.00,,,0.00,meteohub,2013-02-27 02:16:00,
2013-02-26 21:22:00,31.3,17.4,28.32,SE,135,18.0,18.0,56,0.00,,,0.00,meteohub,2013-02-27 02:22:00,
2013-02-26 21:27:00,31.3,17.4,28.32,East,90,10.0,18.0,56,0.00,,,0.00,meteohub,2013-02-27 02:27:00,
2013-02-26 21:32:00,31.5,18.0,28.32,South,180,13.0,18.0,57,0.00,,,0.00,meteohub,2013-02-27 02:32:00,
2013-02-26 21:37:00,31.5,18.0,28.31,SE,135,14.0,18.0,57,0.00,,,0.00,meteohub,2013-02-27 02:37:00,
2013-02-26 21:42:00,31.5,18.3,28.31,SSW,203,14.0,21.0,58,0.00,,,0.00,meteohub,2013-02-27 02:42:00,
2013-02-26 21:48:00,31.3,18.7,28.30,SE,135,7.0,21.0,59,0.00,,,0.00,meteohub,2013-02-27 02:48:00,
2013-02-26 21:53:00,31.3,18.7,28.30,South,180,10.0,21.0,59,0.00,,,0.00,meteohub,2013-02-27 02:53:00,
2013-02-26 21:58:00,31.3,19.0,28.29,South,180,15.0,15.0,60,0.00,,,0.00,meteohub,2013-02-27 02:58:00,
2013-02-26 22:03:00,31.1,18.9,28.29,North,0,15.0,18.0,60,0.00,,,0.00,meteohub,2013-02-27 03:03:00,
2013-02-26 22:08:00,31.1,19.2,28.29,SW,225,6.0,18.0,61,0.00,,,0.00,meteohub,2013-02-27 03:08:00,
2013-02-26 22:13:00,31.1,19.2,28.28,SE,135,8.0,18.0,61,0.00,,,0.00,meteohub,2013-02-27 03:13:00,
2013-02-26 22:18:00,31.1,18.9,28.28,SSE,158,5.0,15.0,60,0.00,,,0.00,meteohub,2013-02-27 03:18:00,
2013-02-26 22:23:00,31.1,18.9,28.28,SSE,158,6.0,15.0,60,0.00,,,0.00,meteohub,2013-02-27 03:23:00,
2013-02-26 22:28:00,31.1,18.1,28.28,South,180,8.0,15.0,58,0.00,,,0.00,meteohub,2013-02-27 03:28:00,
2013-02-26 22:34:00,31.1,18.5,28.28,SE,135,10.0,20.0,59,0.00,,,0.00,meteohub,2013-02-27 03:34:00,
2013-02-26 22:39:00,30.7,18.9,28.29,South,180,11.0,20.0,61,0.00,,,0.00,meteohub,2013-02-27 03:39:00,
2013-02-26 22:44:00,30.4,18.9,28.29,SE,135,8.0,20.0,62,0.00,,,0.00,meteohub,2013-02-27 03:44:00,
2013-02-26 22:49:00,30.2,19.0,28.29,South,180,11.0,18.0,63,0.00,,,0.00,meteohub,2013-02-27 03:49:00,
2013-02-26 22:54:00,30.0,19.8,28.28,South,180,6.0,18.0,65,0.00,,,0.00,meteohub,2013-02-27 03:54:00,
2013-02-26 22:59:00,29.3,20.1,28.27,SW,225,7.0,18.0,68,0.00,,,0.00,meteohub,2013-02-27 03:59:00,
2013-02-26 23:05:00,28.9,21.0,28.27,South,180,8.0,17.0,72,0.00,,,0.00,meteohub,2013-02-27 04:05:00,
2013-02-26 23:10:00,28.6,21.0,28.27,South,180,7.0,13.0,73,0.00,,,0.00,meteohub,2013-02-27 04:10:00,
2013-02-26 23:15:00,28.2,19.8,28.27,South,180,16.0,16.0,70,0.00,,,0.00,meteohub,2013-02-27 04:15:00,
2013-02-26 23:20:00,27.9,19.8,28.26,SW,225,4.0,17.0,71,0.00,,,0.00,meteohub,2013-02-27 04:20:00,
2013-02-26 23:25:00,27.9,20.3,28.26,SSE,158,7.0,17.0,73,0.00,,,0.00,meteohub,2013-02-27 04:25:00,
2013-02-26 23:30:00,27.7,20.5,28.27,South,180,9.0,23.0,74,0.00,,,0.00,meteohub,2013-02-27 04:30:00,
2013-02-26 23:35:00,27.7,20.8,28.27,SE,135,6.0,23.0,75,0.00,,,0.00,meteohub,2013-02-27 04:35:00,
2013-02-26 23:40:00,27.5,20.7,28.27,South,180,8.0,13.0,75,0.00,,,0.00,meteohub,2013-02-27 04:40:00,
2013-02-26 23:46:00,27.3,20.8,28.25,SSE,158,11.0,13.0,76,0.00,,,0.00,meteohub,2013-02-27 04:46:00,
2013-02-26 23:51:00,27.1,20.8,28.24,South,180,5.0,13.0,77,0.00,,,0.00,meteohub,2013-02-27 04:51:00,
2013-02-26 23:56:00,27.1,20.8,28.23,SE,135,14.0,14.0,77,0.00,,,0.00,meteohub,2013-02-27 04:56:00,